Location: El Castaño
(10.3135°N, 67.5574°W)
Time: 02:03:57
(UTC+00:00)

NOAA 6 - Pass Details

Date: 13 June 2024
Orbit: 769 x 784 km, 98.6° (Epoch: 14 July)

Event Time Altitude Azimuth Distance (km) Brightness Sun altitude
Rises 23:18:09 0° 169° (S) 3,244 6.9 -6.6°
Reaches altitude 10° 23:20:27 10° 170° (S) 2,319 6.2 -7.2°
Maximum altitude 23:25:34 82° 257° (WSW) 789 4.2 -8.3°
Drops below altitude 10° 23:30:43 10° 345° (NNW) 2,327 7.1 -9.4°
Sets 23:33:02 0° 346° (NNW) 3,256 7.9 -9.9°
